Weather History for Lubbock, TX

Change the Weather History Date:

Friday, November 22, 2013

  Actual Average Record
Temperature  
Mean Temperature 27 °F 47 °F  
Max Temperature 29 °F 61 °F 82 °F (2006)
Min Temperature 24 °F 33 °F 6 °F (1957)
Degree Days  
Heating Degree Days 38 18  
Month to date heating degree days 276 301  
Since 1 July heating degree days 439 483  
Cooling Degree Days 0 0  
Month to date cooling degree days 3 0  
Year to date cooling degree days 2123 1801  
Moisture  
Dew Point 19 °F    
Average Humidity 69    
Maximum Humidity 81    
Minimum Humidity 57    
Precipitation  
Precipitation 0.05 in 0.02 in 0.49 in (1922)
Month to date precipitation 0.06 0.64  
Year to date precipitation 11.53 18.15  
Snow  
Snow T in 0.10 in - ()
Month to date snowfall T 0.6  
Since 1 July snowfall T 0.6  
Since 1 September snowfall T 0.6  
Snow Depth 0.00 in    
Sea Level Pressure  
Sea Level Pressure 30.48 in    
Wind  
Wind Speed 20 mph (NNE)    
Max Wind Speed 30 mph    
Max Gust Speed 38 mph    
Visibility 9 miles    
Events Rain , Snow    
T = Trace of Precipitation, MM = Missing Value Source: NWS Daily Summary

Daily Weather History Graph

Daily Weather History Graph

Search for Another Location

Airport:

Trip Planner

Search our weather history database for the weather conditions in past years. The results will help you decide how hot, cold, wet, or windy it might be!

Date:

Astronomy

Nov. 22, 2013 Rise Set
Actual Time 7:25 AM CST 5:40 PM CST
Civil Twilight 6:59 AM CST 6:07 PM CST
Nautical Twilight 6:28 AM CST 6:38 PM CST
Astronomical Twilight 5:58 AM CST 7:07 PM CST
Moon 10:10 PM CST (11/22) 11:13 AM CST (11/22)
Length of Visible Light 11h 08m
Length of Day
10h 14m
Waning Gibbous, 78% of the Moon is Illuminated
Nov 22
Waning Gibbous
Nov 25
Last Quarter
Dec 2
New
Dec 9
First Quarter
Dec 17
Full

Hourly Weather History & Observations

Time (CST) Temp. Windchill Dew Point Humidity Pressure Visibility Wind Dir Wind Speed Gust Speed Precip Events Conditions
12:53 AM 28.0 °F 14.9 °F 17.1 °F 63% 30.31 in 10.0 mi NNE 19.6 mph 29.9 mph N/A   Overcast
1:53 AM 27.0 °F 11.3 °F 15.1 °F 61% 30.32 in 10.0 mi NNE 27.6 mph 33.4 mph N/A   Overcast
2:53 AM 26.1 °F 11.0 °F 15.1 °F 63% 30.36 in 10.0 mi NNE 24.2 mph 31.1 mph N/A   Overcast
3:53 AM 26.1 °F 11.6 °F 14.0 °F 60% 30.39 in 10.0 mi NNE 21.9 mph 33.4 mph N/A   Overcast
4:20 AM 26.6 °F 11.7 °F 15.8 °F 64% 30.37 in 9.0 mi North 24.2 mph 34.5 mph 0.00 in Rain Light Freezing Rain
4:33 AM 24.8 °F 9.0 °F 17.6 °F 74% 30.38 in 9.0 mi North 25.3 mph 34.5 mph 0.01 in Rain Light Freezing Rain
4:46 AM 24.8 °F 9.3 °F 17.6 °F 74% 30.38 in 9.0 mi North 24.2 mph 35.7 mph 0.01 in Rain Small Hail
4:53 AM 25.0 °F 10.2 °F 17.1 °F 72% 30.41 in 9.0 mi North 21.9 mph 33.4 mph 0.01 in Rain Light Freezing Rain
5:00 AM 24.8 °F 9.0 °F 15.8 °F 69% 30.38 in 10.0 mi North 25.3 mph 33.4 mph 0.00 in   Overcast
5:53 AM 25.0 °F 10.6 °F 14.0 °F 63% 30.45 in 10.0 mi North 20.7 mph 32.2 mph 0.00 in   Overcast
6:24 AM 24.8 °F 11.1 °F 14.0 °F 64% 30.44 in 9.0 mi North 18.4 mph 28.8 mph 0.00 in Rain Light Freezing Rain
6:39 AM 24.8 °F 9.6 °F 15.8 °F 69% 30.43 in 8.0 mi North 23.0 mph 28.8 mph 0.00 in Rain , Snow Light Freezing Rain
6:53 AM 24.1 °F 9.0 °F 17.1 °F 75% 30.49 in 9.0 mi North 21.9 mph 32.2 mph 0.00 in Rain , Snow Light Freezing Rain
7:47 AM 24.8 °F 9.6 °F 17.6 °F 74% 30.46 in 10.0 mi North 23.0 mph 33.4 mph 0.00 in   Overcast
7:53 AM 24.1 °F 8.7 °F 17.1 °F 75% 30.51 in 10.0 mi North 23.0 mph 32.2 mph 0.00 in   Overcast
8:22 AM 24.8 °F 8.7 °F 17.6 °F 74% 30.46 in 10.0 mi North 26.5 mph 36.8 mph N/A   Overcast
8:53 AM 25.0 °F 9.5 °F 17.1 °F 72% 30.52 in 10.0 mi North 24.2 mph 33.4 mph N/A   Overcast
9:12 AM 24.8 °F 9.0 °F 17.6 °F 74% 30.49 in 10.0 mi North 25.3 mph 29.9 mph N/A   Overcast
9:53 AM 25.0 °F 9.5 °F 17.1 °F 72% 30.55 in 10.0 mi NNE 24.2 mph 34.5 mph N/A   Overcast
10:53 AM 25.0 °F 10.6 °F 18.0 °F 75% 30.57 in 10.0 mi NNE 20.7 mph 32.2 mph N/A   Overcast
11:23 AM 24.8 °F 9.6 °F 21.2 °F 86% 30.50 in 4.0 mi NNE 23.0 mph 28.8 mph 0.00 in Rain Light Freezing Rain
11:53 AM 25.0 °F 10.2 °F 21.9 °F 88% 30.56 in 4.0 mi NNE 21.9 mph 27.6 mph 0.02 in Rain Light Freezing Rain
12:21 PM 26.6 °F 13.1 °F 21.2 °F 80% 30.48 in 4.0 mi North 19.6 mph 26.5 mph 0.02 in Rain Light Freezing Rain
12:53 PM 26.1 °F 11.6 °F 21.9 °F 84% 30.52 in 7.0 mi NNE 21.9 mph 28.8 mph 0.02 in Rain Light Freezing Rain
1:18 PM 26.6 °F 12.7 °F 21.2 °F 80% 30.45 in 10.0 mi North 20.7 mph 26.5 mph 0.00 in   Overcast
1:53 PM 27.0 °F 13.5 °F 21.9 °F 81% 30.51 in 10.0 mi North 19.6 mph 28.8 mph 0.00 in   Overcast
2:53 PM 27.0 °F 13.9 °F 21.9 °F 81% 30.51 in 10.0 mi North 18.4 mph 24.2 mph N/A   Overcast
3:53 PM 27.0 °F 15.2 °F 21.0 °F 78% 30.51 in 10.0 mi North 15.0 mph 24.2 mph N/A   Overcast
4:53 PM 27.0 °F 13.5 °F 21.0 °F 78% 30.52 in 10.0 mi North 19.6 mph 24.2 mph N/A   Overcast
5:53 PM 26.1 °F 12.7 °F 21.9 °F 84% 30.52 in 10.0 mi NNE 18.4 mph 23.0 mph 0.00 in   Overcast
6:53 PM 26.1 °F 14.5 °F 21.0 °F 81% 30.53 in 10.0 mi North 13.8 mph - 0.00 in Snow Light Snow
7:29 PM 26.6 °F 13.8 °F 21.2 °F 80% 30.46 in 8.0 mi North 17.3 mph - 0.00 in   Light Freezing Drizzle
7:53 PM 26.1 °F 14.5 °F 21.9 °F 84% 30.53 in 7.0 mi North 13.8 mph - 0.00 in   Light Freezing Drizzle
8:53 PM 26.1 °F 14.5 °F 21.9 °F 84% 30.55 in 6.0 mi North 13.8 mph - 0.00 in   Light Freezing Drizzle
9:04 PM 26.6 °F 14.3 °F 21.2 °F 80% 30.47 in 6.0 mi North 16.1 mph 21.9 mph 0.00 in   Light Freezing Drizzle
9:53 PM 26.1 °F 13.6 °F 21.9 °F 84% 30.55 in 8.0 mi North 16.1 mph 21.9 mph 0.00 in   Light Freezing Drizzle
10:53 PM 26.1 °F 14.0 °F 21.9 °F 84% 30.56 in 10.0 mi North 15.0 mph 21.9 mph 0.00 in   Light Freezing Drizzle
11:17 PM 26.6 °F 15.2 °F 21.2 °F 80% 30.50 in 8.0 mi North 13.8 mph - 0.00 in   Light Freezing Drizzle
11:53 PM 25.0 °F 13.1 °F 21.9 °F 88% 30.58 in 8.0 mi North 13.8 mph 20.7 mph 0.00 in   Light Freezing Drizzle